Regional Weather Roundup
Issued by NWS

Home | Current Version | Previous Version | Text Only | Print | Product List | Glossary Off
Versions: 1 2 3 4 5 6 7 8 9 10 11 12 13 14 15 16 17 18 19 20 21 22 23 24 25 26 27 28 29 30 31 32 33 34 35 36 37 38 39 40 41 42 43 44 45 46 47 48 49 50

000
ASUS43 KLSX 250159
RWRMO

WEATHER SUMMARY FOR MISSOURI
NATIONAL WEATHER SERVICE SPRINGFIELD MO
900 PM CDT THU APR 24 2014

NOTE: "FAIR" INDICATES FEW OR NO CLOUDS BELOW 12,000 FEET WITH NO
       SIGNIFICANT WEATHER AND/OR OBSTRUCTIONS TO VISIBILITY.
       CURRENT SKY AND/OR WEATHER CONDITIONS ARE NOT AVAILABLE FOR
       CHILLICOTHE AND FARMINGTON.

MOZ001>031-035>038-043-044-053-054-250300-
...NORTHERN AND WESTERN MISSOURI...

CITY           SKY/WX    TMP DP  RH WIND       PRES   REMARKS
KANSAS CTY INT CLOUDY    54  47  77 NW7       29.81R
KANSAS C DTWN  CLOUDY    57  48  72 NW6       29.81R
LEE`S SUMMIT   MOCLDY    55  47  74 NW10      29.81R
ST JOSEPH      CLOUDY    53  46  77 CALM      29.81S
CHILLICOTHE      N/A     53  46  77 NW7       29.78R
KIRKSVILLE     CLOUDY    52  48  86 NW16G25   29.71R

$$
MOZ066>068-077>081-088>096-101>105-250300-
...SOUTHWEST MISSOURI...

CITY           SKY/WX    TMP DP  RH WIND       PRES   REMARKS
SPRINGFIELD    CLOUDY    57  53  86 NW12G21   29.77R
JOPLIN         CLOUDY    57  44  62 NW17      29.85R

$$
MOZ032>034-039>042-045>050-055>058-069>072-250300-
...CENTRAL MISSOURI...

CITY           SKY/WX    TMP DP  RH WIND       PRES   REMARKS
COLUMBIA       CLOUDY    56  53  90 NW14      29.70R
JEFFERSON CITY CLOUDY    58  54  86 NW16G26   29.69R
ROLLA          LGT RAIN  56  54  93 SW9       29.67R
SEDALIA        LGT RAIN  55  50  83 NW15G26   29.76R
OSAGE BEACH    CLOUDY    55  52  88 NW10G17   29.73R

$$
MOZ051-052-059>065-250300-
...EAST CENTRAL MISSOURI...

CITY           SKY/WX    TMP DP  RH WIND       PRES   REMARKS
ST LOUIS INTL  LGT RAIN  60  56  86 SE10      29.63F
SPIRIT OF STL  CLOUDY   N/A N/A N/A CALM      29.64R
ST CHARLES     LGT RAIN  58  57  97 SE7       29.64S

$$
MOZ072>076-082>087-097>100-106>115-250300-
...SOUTH CENTRAL AND SOUTHEAST MISSOURI...

CITY           SKY/WX    TMP DP  RH WIND       PRES   REMARKS
CAPE GIRARDEAU LGT RAIN  64  62  93 SE20      29.68R FOG
FARMINGTON     CLOUDY    57  55  94 CALM      29.70R
POPLAR BLUFF   CLOUDY    64  59  83 S9        29.67F
WEST PLAINS    LGT RAIN  63  56  78 N12       29.69R

$$



USA.gov is the U.S. government's official web portal to all federal, state and local government web resources and services.